Location: Frydek-Mistek
(49.6830°N, 18.3330°E)
Time: 05:06:27
(UTC+02:00)

ISS - Pass Details

Date: 21 May 2021
Orbit: 417 x 422 km, 51.6° (Epoch: 13 June)

Event Time Altitude Azimuth Distance (km) Brightness Sun altitude
Rises 00:32:41 0° 288° (WNW) 2,370 0.3 -20.1°
Reaches altitude 10° 00:34:47 10° 286° (WNW) 1,505 -0.7 -20.1°
Enters shadow 00:37:08 40° 271° (W) 633 -2.9 -20.1°
